This is the latest recevied weather packets stored in our database for station/object KD4EED. If no packets are shown the sender has not sent any weather packets the latest 10 day(s).
| Time | Temp. | Humidity | Pressure | Rain* | Wind** | Luminosity | Snow |
|---|---|---|---|---|---|---|---|
| 1788319867 | 21.11° C | 68% | 1011.5 hPa | - | - | 0 W/m² | - |
| 1788319565 | 21.11° C | 68% | 1011.4 hPa | - | - | 0 W/m² | - |
| 1788319260 | 21.11° C | 68% | 1011.5 hPa | - | - | 0 W/m² | - |
| 1788318954 | 21.11° C | 68% | 1011.4 hPa | - | - | 0 W/m² | - |
| 1788318651 | 21.11° C | 67% | 1011.5 hPa | - | - | 0 W/m² | - |
| 1788318346 | 21.11° C | 66% | 1011.3 hPa | - | - | 0 W/m² | - |
| 1788318045 | 21.11° C | 67% | 1011.4 hPa | - | - | 0 W/m² | - |
| 1788317740 | 21.11° C | 67% | 1011.4 hPa | - | - | 0 W/m² | - |
| 1788317435 | 21.67° C | 66% | 1011.4 hPa | - | - | 0 W/m² | - |
| 1788317131 | 21.67° C | 66% | 1011.2 hPa | - | - | 0 W/m² | - |
| 1788316830 | 21.67° C | 65% | 1011.3 hPa | - | - | 0 W/m² | - |
| 1788316526 | 21.67° C | 65% | 1011.4 hPa | - | - | 0 W/m² | - |
| 1788316222 | 22.22° C | 64% | 1011.2 hPa | - | - | 0 W/m² | - |
| 1788315921 | 22.22° C | 64% | 1011.1 hPa | - | - | 1 W/m² | - |
| 1788315617 | 22.22° C | 63% | 1011.1 hPa | - | - | 2 W/m² | - |
| 1788315312 | 22.78° C | 63% | 1011.3 hPa | - | - | 3 W/m² | - |
| 1788315008 | 22.78° C | 62% | 1011.2 hPa | - | - | 5 W/m² | - |
| 1788314703 | 23.33° C | 62% | 1011.2 hPa | - | - | 6 W/m² | - |
| 1788314399 | 23.33° C | 62% | 1011.3 hPa | - | - | 9 W/m² | - |
| 1788314094 | 23.89° C | 61% | 1011.2 hPa | - | - | 11 W/m² | - |
| 1788313790 | 23.89° C | 60% | 1011.3 hPa | - | - | 15 W/m² | - |
| 1788313486 | 24.44° C | 60% | 1011.3 hPa | - | - | 26 W/m² | - |
| 1788313186 | 24.44° C | 60% | 1011.2 hPa | - | - | 33 W/m² | - |
| 1788312881 | 25° C | 59% | 1011.4 hPa | - | - | 32 W/m² | - |
| 1788312576 | 25° C | 59% | 1011.2 hPa | - | - | 43 W/m² | - |
* Rain since midnight (hover to see other rain measurements)
** Current wind speed in m/s (hover to see current wind gust speed)